Flag for Germany Weather past 2 weeks in Winsen (Luhe), Lower Saxony, Germany

Now
39 °F

Sprinkles. Broken clouds.


Feels Like: 30 °F
Forecast: 34 / 46 °F
Wind: 18 mph from West

Location: Hamburg-Finkenwerder

Current Time: Mar 4, 2015 at 2:10:23 PM

Latest Report: Mar 4, 2015 at 1:20 PM


Visibility: N/A

Pressure: 30.07 "Hg

Humidity: 100%

Dew point: 39 °F

Location of Winsen (Luhe)Location

Historic Weather in Winsen (Luhe) — Graph

°F

Winsen (Luhe) temperature yesterday

Maximum temperature yesterday: 43 °F (at 12:20 PM)
Minimum temperature yesterday: 34 °F (at 6:50 AM)
Average temperature yesterday: 39 °F

Past Weeks' High & Low Weather Summary

 TemperatureHumidityPressure
High46 °F (Feb 25, 3:20 PM)100% (Feb 17, 12:20 PM)30.69 "Hg (Feb 17, 12:20 PM)
Low32 °F (Feb 18, 5:50 AM)61% (Feb 18, 4:20 PM)29.24 "Hg (Feb 21, 10:50 AM)
Average39 °F89%29.90 "Hg
* Reported Feb 17 12:20 PM — Mar 4 12:50 PM, Winsen (Luhe), Weather by CustomWeather, © 2015

Note: Actual official high and low records may vary slightly from our data, if they occured in-between our weather recording intervals... More about our weather records

Advertising

Winsen (Luhe) weather history for previous 24 hours

 ConditionsComfort  
Time TempWeatherWind HumidityBarometerVisibility
12:50 PM
Wed, Mar 4
43 °FSprinkles. Scattered clouds.18 mph81%30.04 "HgN/A
12:20 PM41 °FSprinkles. Partly sunny.17 mph81%30.07 "HgN/A
11:50 AM41 °FPartly sunny.20 mph87%30.04 "HgN/A
11:20 AM41 °FPartly sunny.18 mph87%30.04 "HgN/A
10:50 AM39 °FScattered showers. Partly sunny.18 mph87%30.04 "HgN/A
10:20 AM39 °FPartly sunny.17 mph87%30.04 "HgN/A
9:50 AM37 °FPartly sunny.15 mph93%30.01 "HgN/A
9:20 AM36 °FPartly sunny.14 mph100%30.01 "HgN/A
8:50 AM36 °FBroken clouds.17 mph93%30.01 "HgN/A
8:20 AM36 °FPartly sunny.13 mph93%30.01 "HgN/A
7:50 AM34 °FPartly sunny.13 mph100%30.01 "HgN/A
7:20 AM34 °FSunny.9 mph93%29.98 "Hg10 mi
6:50 AM32 °FClear.8 mph100%29.98 "Hg10 mi
6:20 AM34 °FPassing clouds.6 mph93%29.98 "HgN/A
5:50 AM34 °FPassing clouds.7 mph100%29.98 "HgN/A
8:50 PM
Tue, Mar 3
37 °FPassing clouds.18 mph93%29.86 "HgN/A
8:20 PM37 °FPassing clouds.18 mph100%29.86 "HgN/A
7:50 PM39 °FPassing clouds.15 mph100%29.83 "Hg5 mi
7:20 PM37 °FPartly cloudy.16 mph100%29.83 "Hg6 mi
6:50 PM37 °FPassing clouds.10 mph100%29.83 "Hg5 mi
6:20 PM37 °FLight rain. Passing clouds.13 mph100%29.83 "Hg5 mi
5:50 PM37 °FLight rain. Partly sunny.13 mph100%29.83 "Hg5 mi
5:20 PM39 °FLight rain. Partly sunny.12 mph100%29.83 "Hg5 mi
4:50 PM37 °FLight rain. Partly sunny.3 mph100%29.86 "Hg5 mi
4:20 PM37 °FLight rain. Partly sunny.3 mph100%29.86 "Hg6 mi
3:50 PM37 °FLight rain. Partly sunny.15 mph100%29.86 "Hg4 mi
3:20 PM43 °FScattered showers. Broken clouds.13 mph71%29.89 "HgN/A
2:50 PM43 °FBroken clouds.10 mph71%29.89 "HgN/A
2:20 PM43 °FBroken clouds.18 mph71%29.89 "HgN/A
Weather by CustomWeather, © 2015

See weather overviewHow to use our weather pages